Starlink 11099

operational
NORAD ID: 59716 Int'l Des: 2024-088 Owner: SPXS Country: US Constellation: starlink
LEOCIRCULAR

Über Starlink 11099

Beschreibung wird geladen...

Live-Position

3D-Globus wird geladen...

Nächste Überflüge

Höhenverlauf

Altitude vs Time

uPlot chart will show altitude changes over time

Zweizeiliger Elementsatz

1 59716U 24088J 26035.26935159 .00001282 00000-0 15439-4 0 9995
2 59716 53.1589 130.9867 0000949 76.6697 283.4427 15.69707738101025
Epoch: 4. Feb. 2026 • Age: 8 hours

Aktueller Status

Höhe 359.6 km
Geschwindigkeit 7.70 km/s
Subsatellitenpunkt 14.49°N, 153.03°E
Startdatum 10. Mai 2024
Alter 1.7 years
Typ internet

Technische Details

Klassifizierung Payload
Masse 960.00 kg
Trockenmasse 910.00 kg
Gesamtmasse 960.00 kg
Länge 0.30 m
Durchmesser 4.10 m
Spannweite 29.00 m
Form Box + pan
Hersteller SPXS
Bus-Typ Starlink V2MD
Phasenstatus In Orbit
Besitzer/Staat SPXS/US

Große Konstellationen

Loading constellations...